SCP
0 0 0 0 0 0 0 0 0 0 0 0 0 0 0 0 0 0 0 0 0 0 0 0 0 0 0 0 0 0 0 0 0 0 0 0 0 0
0 0 0 0 0 0 0 0 0 0 0 0 0 0 0 0 0 0 0 0 0 0 0 0 0 0 0 0 0 0 0 0 0 0 0 0 0 0
0 0 0 0 0 0 0 0 0 0 0 0 0 0 0 0 0 0 0 1 1 0 0 0 0 0 0 0 0 0 0 0 0 0 0 0 0 0
0 0 0 0 0 0 0 0 0 0 0 0 0 0 0 0 0 0 0 0 0 0 0 0 0 0 0 0 0 0 0 0 0 0 0 0 0 0
0 0 0 0 0 0 0 0 0 0 0 0 0 0 0 0 0 0 0 0 0 0 0 0 0 0 0 0 0 0 0 0 0 0 0 0 0 0
0 0 0 0 0 0 0 0 0 0 0 0 0 0 0 0 0 0 0 0 0 0 0 0 0 0 0 0 0 0 0 0 -0 -0 -0 0 0 0
0 0 0 0 0 0 0 0 0 0 0 0 0 0 0 0 0 0 0 0 0 0 0 0 0 0 0 0 0 0 0 -0 -0 -0 0 0 0 0
0 0 0 0 0 0 0 0 0 0 0 0 0 0 0 0 0 0 0 0 0 0 0 0 0 0 0 0 0 0 0 -0 -0 -0 0 0 0 0
0 0 0 0 0 0 0 0 0 0 0 0 0 0 0 0 0 0 0 0 0 0 0 0 0 0 0 0 0 0 0 0 -0 -0 0 0 0 0
0 0 0 0 0 0 0 0 0 0 0 0 0 0 0 0 0 0 0 0 0 0 0 -0 0 0 0 0 0 0 0 0 0 0 0 0 0 0
0 0 0 0 0 0 0 0 0 0 0 0 0 0 0 0 0 0 0 0 0 0 0 0 0 0 0 0 0 0 -0 -0 0 0 0 0 0 0
0 0 0 0 0 0 0 0 0 0 0 0 0 0 0 0 0 0 0 0 0 0 0 0 0 0 0 0 0 0 0 0 0 0 0 0 0 0
0 0 0 0 0 0 0 0 0 0 0 0 0 0 0 0 0 0 0 0 0 0 0 0 0 0 0 0 0 0 0 0 0 0 0 0 0 0
0 0 0 0 0 0 0 0 0 0 0 0 0 0 0 0 0 0 0 0 0 0 0 0 -0 0 0 0 0 0 0 0 0 0 0 0 0 0
0 0 0 0 0 0 0 0 0 0 0 0 0 0 0 0 0 0 0 0 0 0 0 0 -0 -0 0 0 0 0 0 0 0 0 0 0 0 0
0 0 0 0 0 0 0 0 0 0 0 0 0 0 0 0 0 0 0 0 0 0 0 0 0 -0 -0 0 0 0 0 0 0 0 0 0 0 0
0 0 0 0 0 0 0 0 0 0 0 0 0 0 0 0 0 0 0 0 0 0 0 0 0 0 0 0 0 0 0 0 0 0 0 0 0 0
0 0 0 0 0 0 0 0 0 0 0 -0 -0 -0 0 0 0 0 0 0 0 0 0 0 0 0 0 0 0 0 0 0 0 0 0 0 0 0
0 0 0 0 0 0 0 0 0 0 0 0 -0 -0 -0 0 0 0 0 0 0 0 0 0 0 0 0 0 0 0 0 0 0 0 0 0 0 0
0 0 0 0 0 0 0 0 0 0 0 0 -0 -0 -0 0 0 0 0 0 0 0 0 0 0 0 0 0 0 0 0 0 0 0 0 0 0 0
0 0 0 0 0 0 0 0 0 0 0 0 0 0 -0 0 0 0 0 0 0 0 0 0 0 0 0 0 0 0 0 0 0 0 0 0 0 0
0 0 0 0 0 0 0 0 0 0 0 0 0 0 0 0 0 0 0 0 0 0 0 0 0 0 0 0 0 0 0 0 0 0 0 0 0 0
0 0 0 0 0 0 0 0 0 0 0 0 0 0 0 0 0 0 0 0 0 0 0 0 0 0 0 0 0 0 0 0 0 0 0 0 0 0
Wind_Speed_500mb
44 44 44 42 41 40 45 46 43 42 61 62 57 56 60 62 69 49 44 41 42 44 46 47 34 33 31 36 42 41 40 39 36 35 32 32 37 45
50 50 50 51 50 50 49 47 48 55 65 61 69 69 63 61 63 62 54 47 47 47 47 47 49 49 42 42 42 39 38 38 40 38 35 32 33 36
51 52 51 52 52 51 52 53 51 48 59 77 67 63 67 66 70 69 64 60 54 48 52 56 57 55 42 40 37 36 35 32 34 39 39 36 33 32
65 64 62 61 60 57 55 52 50 51 56 71 65 53 53 50 56 65 71 67 59 54 62 68 63 50 46 38 42 40 39 31 31 30 33 39 37 35
73 74 75 72 74 72 69 68 63 60 58 65 69 61 56 51 57 64 69 64 58 60 65 62 58 52 58 51 49 49 47 46 41 36 35 37 41 39
79 78 77 77 81 82 81 81 77 76 76 76 78 77 72 67 61 60 66 61 61 61 64 62 56 57 66 67 58 55 59 56 58 53 48 41 40 43
63 61 60 60 62 67 74 80 84 85 87 88 88 85 87 84 75 72 70 65 65 67 66 59 57 57 66 69 59 53 60 62 60 62 58 47 43 41
49 46 46 46 49 53 58 62 66 74 77 81 89 79 85 84 78 69 70 70 77 77 67 70 59 59 53 51 55 58 60 62 63 63 57 48 47 45
47 48 48 47 49 54 55 53 53 54 56 64 69 72 73 77 75 77 75 72 77 72 60 69 69 65 54 52 52 57 57 60 66 64 58 49 50 50
46 46 49 48 48 51 49 50 48 45 47 47 55 62 67 68 61 55 56 61 71 74 75 83 71 80 68 59 53 58 64 64 67 67 57 51 52 54
49 48 46 46 41 40 41 44 45 45 50 48 45 47 46 49 52 59 60 54 59 60 44 55 56 61 62 60 62 67 69 64 62 64 53 53 54 56
51 49 48 47 46 45 47 47 51 50 46 45 43 42 43 43 42 41 49 66 71 57 66 57 56 52 45 52 52 59 54 43 51 50 49 50 51 53
50 53 54 53 53 51 50 48 51 49 52 50 49 49 51 45 44 47 50 54 56 78 68 26 35 43 45 35 29 28 33 31 32 40 45 48 47 47
54 56 60 56 57 56 56 55 54 54 54 55 56 56 57 56 51 51 51 51 58 68 61 65 79 38 25 31 33 32 31 27 26 24 37 43 43 40
54 57 61 63 63 56 49 49 50 51 51 53 57 60 57 52 46 49 48 44 46 55 57 62 78 71 50 33 29 27 23 21 23 18 27 43 48 48
64 65 61 59 47 41 40 41 43 45 47 51 54 53 45 43 46 44 44 39 41 49 50 52 56 63 63 49 30 30 30 21 26 26 21 23 28 31
51 49 49 50 50 45 39 33 33 35 37 37 38 40 42 42 40 35 38 37 43 41 38 34 48 56 55 44 39 33 38 32 37 44 33 22 20 20
53 59 56 53 51 48 44 38 31 27 24 28 33 33 35 36 29 28 31 35 39 42 36 38 46 49 46 40 41 41 35 40 48 45 37 33 30 32
53 59 59 60 59 54 49 39 34 22 31 43 39 32 29 25 26 30 30 32 35 34 39 50 51 52 42 34 14 28 39 35 52 43 35 31 23 18
61 64 71 70 64 65 52 42 41 35 30 30 41 32 37 34 27 26 11 20 28 40 40 41 44 42 37 37 22 24 26 29 49 44 32 27 26 23
64 69 65 57 70 70 65 48 35 43 36 32 21 13 21 15 19 25 13 23 25 41 42 43 38 34 27 29 27 29 30 29 25 20 20 23 25 25
61 68 54 60 62 64 64 46 39 33 27 24 25 2 9 18 23 29 24 23 27 31 36 34 32 28 32 41 31 44 37 30 27 26 23 18 17 18
56 62 61 64 67 69 64 51 31 24 19 20 12 11 7 14 31 29 30 33 32 28 34 34 30 40 35 35 34 53 46 39 31 25 22 16 14 10
Wind_Direction_500mb
292 287 286 282 282 276 269 264 262 267 272 268 263 258 270 276 272 275 260 261 262 266 275 268 273 294 295 289 292 290 284 274 267 260 261 256 252 246
294 291 287 284 280 278 276 273 269 266 266 268 270 276 273 268 264 269 267 266 263 263 269 262 278 289 284 281 294 298 290 280 272 266 265 266 259 253
295 294 292 290 287 282 277 275 273 270 270 273 272 268 263 263 265 267 269 268 265 262 256 263 277 283 266 265 287 299 295 291 287 275 267 264 265 260
298 296 293 292 289 289 287 285 282 276 273 274 277 274 265 261 262 263 265 268 268 255 250 256 271 273 256 261 275 297 285 282 307 300 278 264 260 262
291 290 289 287 285 283 281 279 278 277 277 277 278 276 273 267 261 257 261 264 263 258 261 264 264 262 257 263 270 281 288 272 283 307 299 271 255 255
289 287 284 281 279 278 276 275 274 274 273 272 272 272 271 269 263 262 263 260 259 267 269 267 264 254 256 263 274 275 282 274 274 283 300 281 260 250
289 287 285 284 281 279 278 276 274 270 268 268 270 272 271 269 267 267 264 266 263 262 265 264 257 252 256 263 269 267 272 270 276 277 286 281 260 249
300 298 293 290 291 287 280 275 270 267 267 267 267 264 266 269 270 269 268 265 266 259 261 261 264 260 259 257 261 265 267 269 276 283 282 270 255 245
306 303 299 298 297 295 292 282 275 269 262 261 262 267 272 270 271 270 266 264 264 262 257 259 259 261 260 257 257 259 268 271 274 280 281 258 249 240
307 304 300 300 298 294 294 287 279 270 267 263 260 261 264 268 268 265 260 258 259 258 256 260 259 258 255 257 256 257 271 273 274 278 272 251 243 238
309 304 301 299 298 295 292 285 279 270 271 272 266 263 259 257 256 254 250 255 255 259 264 261 262 260 260 257 257 265 270 272 268 271 256 245 240 233
319 314 309 304 297 293 294 290 287 279 274 271 269 262 261 260 262 262 263 256 253 260 255 255 259 258 255 256 253 267 269 268 262 255 246 241 231 234
318 316 311 306 300 294 291 286 281 281 276 271 267 265 264 260 269 271 267 258 253 249 241 240 255 247 245 248 239 246 267 279 265 243 238 226 227 228
319 320 317 316 312 302 287 280 280 278 274 268 267 264 263 265 274 276 274 267 252 247 245 243 247 249 239 256 251 251 270 264 262 255 222 215 213 207
326 320 315 315 312 304 293 282 279 275 268 266 266 266 268 274 276 272 268 260 251 246 246 244 238 240 241 240 243 261 274 265 242 209 198 195 190 184
328 322 320 317 315 308 296 285 280 275 268 267 266 268 272 271 271 269 262 254 246 248 247 243 233 223 229 239 247 265 270 266 227 185 174 178 175 176
345 355 358 354 351 345 329 312 298 286 274 266 265 270 273 274 272 263 256 251 244 242 241 246 217 213 220 233 254 253 261 255 222 183 183 176 182 188
347 346 346 344 339 334 333 333 320 303 279 283 288 287 277 279 267 265 248 242 237 235 234 211 189 194 213 236 247 250 249 235 196 180 183 184 185 186
353 355 349 349 347 341 334 325 311 285 273 287 287 277 281 272 258 284 261 234 230 242 206 189 184 186 197 212 243 233 227 205 178 169 173 181 173 175
353 354 356 352 351 352 347 331 322 311 285 285 290 275 258 250 241 267 250 203 194 186 179 179 184 194 201 208 219 181 179 183 179 166 166 167 165 198
353 357 354 356 3 359 355 346 332 330 341 331 338 252 260 261 218 212 204 168 152 163 163 172 185 191 191 198 169 147 148 166 151 149 156 158 164 174
358 359 6 2 358 13 3 345 334 337 342 342 345 267 246 241 201 191 194 172 169 168 175 180 184 189 194 208 180 156 155 156 151 141 149 162 171 181
0 4 10 8 10 10 360 354 340 331 334 345 339 338 174 205 189 196 177 170 179 170 178 168 173 170 190 177 165 155 155 157 154 158 164 178 183 161
Wind_Speed_850mb
44 44 44 42 41 40 45 46 43 42 61 62 57 56 60 62 69 49 44 41 42 44 46 47 34 33 31 36 42 41 40 39 36 35 32 32 37 45
50 50 50 51 50 50 49 47 48 55 65 61 69 69 63 61 63 62 54 47 47 47 47 47 49 49 42 42 42 39 38 38 40 38 35 32 33 36
51 52 51 52 52 51 52 53 51 48 59 77 67 63 67 66 70 69 64 60 54 48 52 56 57 55 42 40 37 36 35 32 34 39 39 36 33 32
65 64 62 61 60 57 55 52 50 51 56 71 65 53 53 50 56 65 71 67 59 54 62 68 63 50 46 38 42 40 39 31 31 30 33 39 37 35
73 74 75 72 74 72 69 68 63 60 58 65 69 61 56 51 57 64 69 64 58 60 65 62 58 52 58 51 49 49 47 46 41 36 35 37 41 39
79 78 77 77 81 82 81 81 77 76 76 76 78 77 72 67 61 60 66 61 61 61 64 62 56 57 66 67 58 55 59 56 58 53 48 41 40 43
63 61 60 60 62 67 74 80 84 85 87 88 88 85 87 84 75 72 70 65 65 67 66 59 57 57 66 69 59 53 60 62 60 62 58 47 43 41
49 46 46 46 49 53 58 62 66 74 77 81 89 79 85 84 78 69 70 70 77 77 67 70 59 59 53 51 55 58 60 62 63 63 57 48 47 45
47 48 48 47 49 54 55 53 53 54 56 64 69 72 73 77 75 77 75 72 77 72 60 69 69 65 54 52 52 57 57 60 66 64 58 49 50 50
46 46 49 48 48 51 49 50 48 45 47 47 55 62 67 68 61 55 56 61 71 74 75 83 71 80 68 59 53 58 64 64 67 67 57 51 52 54
49 48 46 46 41 40 41 44 45 45 50 48 45 47 46 49 52 59 60 54 59 60 44 55 56 61 62 60 62 67 69 64 62 64 53 53 54 56
51 49 48 47 46 45 47 47 51 50 46 45 43 42 43 43 42 41 49 66 71 57 66 57 56 52 45 52 52 59 54 43 51 50 49 50 51 53
50 53 54 53 53 51 50 48 51 49 52 50 49 49 51 45 44 47 50 54 56 78 68 26 35 43 45 35 29 28 33 31 32 40 45 48 47 47
54 56 60 56 57 56 56 55 54 54 54 55 56 56 57 56 51 51 51 51 58 68 61 65 79 38 25 31 33 32 31 27 26 24 37 43 43 40
54 57 61 63 63 56 49 49 50 51 51 53 57 60 57 52 46 49 48 44 46 55 57 62 78 71 50 33 29 27 23 21 23 18 27 43 48 48
64 65 61 59 47 41 40 41 43 45 47 51 54 53 45 43 46 44 44 39 41 49 50 52 56 63 63 49 30 30 30 21 26 26 21 23 28 31
51 49 49 50 50 45 39 33 33 35 37 37 38 40 42 42 40 35 38 37 43 41 38 34 48 56 55 44 39 33 38 32 37 44 33 22 20 20
53 59 56 53 51 48 44 38 31 27 24 28 33 33 35 36 29 28 31 35 39 42 36 38 46 49 46 40 41 41 35 40 48 45 37 33 30 32
53 59 59 60 59 54 49 39 34 22 31 43 39 32 29 25 26 30 30 32 35 34 39 50 51 52 42 34 14 28 39 35 52 43 35 31 23 18
61 64 71 70 64 65 52 42 41 35 30 30 41 32 37 34 27 26 11 20 28 40 40 41 44 42 37 37 22 24 26 29 49 44 32 27 26 23
64 69 65 57 70 70 65 48 35 43 36 32 21 13 21 15 19 25 13 23 25 41 42 43 38 34 27 29 27 29 30 29 25 20 20 23 25 25
61 68 54 60 62 64 64 46 39 33 27 24 25 2 9 18 23 29 24 23 27 31 36 34 32 28 32 41 31 44 37 30 27 26 23 18 17 18
56 62 61 64 67 69 64 51 31 24 19 20 12 11 7 14 31 29 30 33 32 28 34 34 30 40 35 35 34 53 46 39 31 25 22 16 14 10
Wind_Direction_850mb
292 287 286 282 282 276 269 264 262 267 272 268 263 258 270 276 272 275 260 261 262 266 275 268 273 294 295 289 292 290 284 274 267 260 261 256 252 246
294 291 287 284 280 278 276 273 269 266 266 268 270 276 273 268 264 269 267 266 263 263 269 262 278 289 284 281 294 298 290 280 272 266 265 266 259 253
295 294 292 290 287 282 277 275 273 270 270 273 272 268 263 263 265 267 269 268 265 262 256 263 277 283 266 265 287 299 295 291 287 275 267 264 265 260
298 296 293 292 289 289 287 285 282 276 273 274 277 274 265 261 262 263 265 268 268 255 250 256 271 273 256 261 275 297 285 282 307 300 278 264 260 262
291 290 289 287 285 283 281 279 278 277 277 277 278 276 273 267 261 257 261 264 263 258 261 264 264 262 257 263 270 281 288 272 283 307 299 271 255 255
289 287 284 281 279 278 276 275 274 274 273 272 272 272 271 269 263 262 263 260 259 267 269 267 264 254 256 263 274 275 282 274 274 283 300 281 260 250
289 287 285 284 281 279 278 276 274 270 268 268 270 272 271 269 267 267 264 266 263 262 265 264 257 252 256 263 269 267 272 270 276 277 286 281 260 249
300 298 293 290 291 287 280 275 270 267 267 267 267 264 266 269 270 269 268 265 266 259 261 261 264 260 259 257 261 265 267 269 276 283 282 270 255 245
306 303 299 298 297 295 292 282 275 269 262 261 262 267 272 270 271 270 266 264 264 262 257 259 259 261 260 257 257 259 268 271 274 280 281 258 249 240
307 304 300 300 298 294 294 287 279 270 267 263 260 261 264 268 268 265 260 258 259 258 256 260 259 258 255 257 256 257 271 273 274 278 272 251 243 238
309 304 301 299 298 295 292 285 279 270 271 272 266 263 259 257 256 254 250 255 255 259 264 261 262 260 260 257 257 265 270 272 268 271 256 245 240 233
319 314 309 304 297 293 294 290 287 279 274 271 269 262 261 260 262 262 263 256 253 260 255 255 259 258 255 256 253 267 269 268 262 255 246 241 231 234
318 316 311 306 300 294 291 286 281 281 276 271 267 265 264 260 269 271 267 258 253 249 241 240 255 247 245 248 239 246 267 279 265 243 238 226 227 228
319 320 317 316 312 302 287 280 280 278 274 268 267 264 263 265 274 276 274 267 252 247 245 243 247 249 239 256 251 251 270 264 262 255 222 215 213 207
326 320 315 315 312 304 293 282 279 275 268 266 266 266 268 274 276 272 268 260 251 246 246 244 238 240 241 240 243 261 274 265 242 209 198 195 190 184
328 322 320 317 315 308 296 285 280 275 268 267 266 268 272 271 271 269 262 254 246 248 247 243 233 223 229 239 247 265 270 266 227 185 174 178 175 176
345 355 358 354 351 345 329 312 298 286 274 266 265 270 273 274 272 263 256 251 244 242 241 246 217 213 220 233 254 253 261 255 222 183 183 176 182 188
347 346 346 344 339 334 333 333 320 303 279 283 288 287 277 279 267 265 248 242 237 235 234 211 189 194 213 236 247 250 249 235 196 180 183 184 185 186
353 355 349 349 347 341 334 325 311 285 273 287 287 277 281 272 258 284 261 234 230 242 206 189 184 186 197 212 243 233 227 205 178 169 173 181 173 175
353 354 356 352 351 352 347 331 322 311 285 285 290 275 258 250 241 267 250 203 194 186 179 179 184 194 201 208 219 181 179 183 179 166 166 167 165 198
353 357 354 356 3 359 355 346 332 330 341 331 338 252 260 261 218 212 204 168 152 163 163 172 185 191 191 198 169 147 148 166 151 149 156 158 164 174
358 359 6 2 358 13 3 345 334 337 342 342 345 267 246 241 201 191 194 172 169 168 175 180 184 189 194 208 180 156 155 156 151 141 149 162 171 181
0 4 10 8 10 10 360 354 340 331 334 345 339 338 174 205 189 196 177 170 179 170 178 168 173 170 190 177 165 155 155 157 154 158 164 178 183 161